GW1065 Weather Reports


Display with metric or nautical units.
time (UTC)temp
F
wind
direction
speed
MPH
gust
MPH
rain 1hr
in
rain 24hr
in
rain mn
in
humidity
%
barometer
mb
20260510230050 74 0 0.0 1.0 0.00 0.00 0.00 28 1021.1
20260510224543 73 0 0.0 2.0 0.00 0.00 0.00 30 1021.1
20260510223050 72 0 0.0 2.0 0.00 0.00 0.00 31 1021.1
20260510221547 72 0 0.0 2.0 0.00 0.00 0.00 31 1020.8
20260510220054 72 0 0.0 2.0 0.00 0.00 0.00 29 1020.8
20260510214551 72 0 0.0 1.0 0.00 0.00 0.00 32 1020.9
20260510213053 71 0 0.0 2.0 0.00 0.00 0.00 33 1020.9
20260510211551 71 0 0.0 2.0 0.00 0.00 0.00 30 1021.0
20260510210049 71 0 0.0 1.0 0.00 0.00 0.00 35 1021.1
20260510204551 70 0 0.0 1.0 0.00 0.00 0.00 30 1021.4
20260510203043 69 0 0.0 1.0 0.00 0.00 0.00 36 1021.5
20260510201549 69 0 0.0 2.0 0.00 0.00 0.00 31 1021.6
20260510200046 70 121 0.0 1.0 0.00 0.00 0.00 32 1021.8
20260510194549 70 0 0.0 1.0 0.00 0.00 0.00 30 1021.9
20260510193051 70 0 0.0 1.0 0.00 0.00 0.00 33 1021.9
20260510191544 70 0 0.0 1.0 0.00 0.00 0.00 30 1022.1
20260510190054 70 0 0.0 2.0 0.00 0.00 0.00 31 1021.9
20260510184613 70 0 0.0 2.0 0.00 0.00 0.00 30 1021.9
20260510183049 69 0 0.0 1.0 0.00 0.00 0.00 30 1021.9
20260510181558 69 0 0.0 1.0 0.00 0.00 0.00 35 1022.1
20260510180057 69 121 0.0 1.0 0.00 0.00 0.00 30 1022.1
20260510174549 70 0 0.0 1.0 0.00 0.00 0.00 33 1022.0
20260510173050 70 0 0.0 2.0 0.00 0.00 0.00 33 1021.9
20260510171559 70 0 0.0 3.0 0.00 0.00 0.00 28 1021.8
20260510170049 70 0 0.0 3.0 0.00 0.00 0.00 31 1021.7
20260510164550 68 0 0.0 2.0 0.00 0.00 0.00 35 1021.7
20260510163051 68 0 0.0 1.0 0.00 0.00 0.00 35 1021.7
20260510161553 67 0 0.0 2.0 0.00 0.00 0.00 34 1021.8
20260510160057 66 0 0.0 2.0 0.00 0.00 0.00 33 1022.0
20260510154611 66 0 0.0 2.0 0.00 0.00 0.00 38 1022.0
20260510153100 65 0 0.0 2.0 0.00 0.00 0.00 39 1021.6
20260510151543 63 0 0.0 2.0 0.00 0.00 0.00 39 1021.4
20260510150106 62 0 0.0 1.0 0.00 0.00 0.00 40 1021.4
20260510144616 61 0 0.0 1.0 0.00 0.00 0.00 42 1021.5
20260510143048 60 0 0.0 1.0 0.00 0.00 0.00 43 1021.7
20260510141547 59 0 0.0 1.0 0.00 0.00 0.00 46 1021.6
20260510140046 58 0 0.0 1.0 0.00 0.00 0.00 47 1021.3
20260510134550 57 0 0.0 1.0 0.00 0.00 0.00 47 1021.3
20260510133044 56 0 0.0 1.0 0.00 0.00 0.00 49 1021.1
20260510131549 55 0 0.0 1.0 0.00 0.00 0.00 48 1020.9
20260510130045 55 0 0.0 1.0 0.00 0.00 0.00 47 1020.8
20260510124549 55 0 0.0 0.0 0.00 0.00 0.00 47 1020.5
20260510123043 55 0 0.0 1.0 0.00 0.00 0.00 46 1020.2
20260510121549 55 0 0.0 1.0 0.00 0.00 0.00 45 1019.7
20260510120052 55 0 0.0 1.0 0.00 0.00 0.00 45 1019.3
20260510114551 56 0 0.0 1.0 0.00 0.00 0.00 45 1019.1
20260510113052 56 0 0.0 1.0 0.00 0.00 0.00 44 1019.0
20260510111551 56 0 0.0 1.0 0.00 0.00 0.00 44 1018.9
20260510110053 56 0 0.0 1.0 0.00 0.00 0.00 45 1018.6
20260510104556 56 0 0.0 1.0 0.00 0.00 0.00 45 1018.4
20260510103047 57 0 0.0 2.0 0.00 0.00 0.00 44 1018.2
20260510101550 57 0 0.0 0.0 0.00 0.00 0.00 45 1017.7
20260510100054 57 0 0.0 1.0 0.00 0.00 0.00 45 1017.5
20260510094556 58 0 0.0 1.0 0.00 0.00 0.00 46 1017.5
20260510093051 58 0 0.0 2.0 0.00 0.00 0.00 48 1017.3
20260510091547 59 0 0.0 2.0 0.00 0.00 0.00 50 1017.0
20260510090043 59 0 0.0 2.0 0.00 0.00 0.00 46 1017.4
20260510084600 59 0 0.0 1.0 0.00 0.00 0.00 47 1017.2
20260510083110 59 0 0.0 2.0 0.00 0.00 0.00 49 1017.1
20260510081610 60 0 0.0 1.0 0.00 0.00 0.00 51 1016.6
20260510080046 60 0 0.0 1.0 0.00 0.00 0.00 51 1016.8
20260510074546 61 0 0.0 1.0 0.00 0.00 0.00 53 1016.4
20260510073051 61 0 0.0 1.0 0.00 0.00 0.00 54 1016.0
20260510071548 62 0 0.0 1.0 0.00 0.00 0.00 54 1015.7
20260510070048 62 0 0.0 1.0 0.00 0.00 0.00 55 1015.5
20260510064549 63 0 0.0 0.0 0.00 0.00 0.00 56 1015.2
20260510063045 64 0 0.0 1.0 0.00 0.00 0.00 56 1015.2
20260510061555 64 0 0.0 0.0 0.00 0.00 0.00 55 1015.2
20260510060047 65 0 0.0 1.0 0.00 0.00 0.00 55 1014.8
20260510054543 65 0 0.0 1.0 0.00 0.00 0.00 54 1014.3
20260510053058 65 0 0.0 1.0 0.00 0.00 0.00 54 1014.2
20260510051549 65 0 0.0 0.0 0.00 0.00 0.00 53 1014.1
20260510050051 65 0 0.0 0.0 0.00 0.00 0.00 52 1014.1
20260510044550 66 0 0.0 0.0 0.00 0.00 0.00 51 1013.8
20260510043044 67 0 0.0 0.0 0.00 0.00 0.00 50 1013.4
20260510041549 67 0 0.0 0.0 0.00 0.00 0.00 49 1013.3
20260510040059 67 0 0.0 0.0 0.00 0.00 0.00 47 1013.3
20260510034557 68 0 0.0 1.0 0.00 0.00 0.00 46 1012.8
20260510033048 69 0 0.0 1.0 0.00 0.00 0.00 46 1012.8
20260510031557 69 0 0.0 2.0 0.00 0.00 0.00 47 1012.2
20260510030048 69 0 0.0 2.0 0.00 0.00 0.00 50 1012.1
20260510024549 70 0 0.0 0.0 0.00 0.00 0.00 52 1011.5
20260510023054 70 0 0.0 0.0 0.00 0.00 0.00 50 1010.8
20260510021549 71 0 0.0 0.0 0.00 0.00 0.00 48 1010.4
20260510020049 72 0 0.0 1.0 0.00 0.00 0.00 47 1010.1
20260510014552 72 0 0.0 2.0 0.00 0.00 0.00 46 1010.1
20260510013101 73 0 0.0 3.0 0.00 0.00 0.00 44 1009.7
20260510011547 73 360 0.0 4.0 0.00 0.00 0.00 43 1009.2
20260510010049 74 0 0.0 4.0 0.00 0.00 0.00 44 1009.4
20260510004548 74 360 0.0 3.0 0.00 0.00 0.00 43 1009.2
20260510003049 74 0 0.0 3.0 0.00 0.00 0.00 43 1008.7
20260510001546 75 0 0.0 2.0 0.00 0.00 0.00 43 1008.5
20260510000050 76 360 0.0 3.0 0.00 0.00 0.00 42 1008.6
20260509234549 76 0 0.0 2.0 0.00 0.00 0.00 41 1008.3
20260509233053 76 0 0.0 2.0 0.00 0.00 0.00 40 1008.6
20260509231553 77 73 0.0 3.0 0.00 0.00 0.00 38 1008.5